Tracking 20232 objects as of 18-Jan-2020
HD Live streaming from Space Station
objects crossing your sky now

INSAT 2R (ARABSAT 1C)

Track INSAT 2R (ARABSAT 1C) now!
INSAT 2R (ARABSAT 1C) is classified as:


NORAD ID: 21894
Int'l Code: 1992-010B
Perigee: 36,124.0 km
Apogee: 36,364.8 km
Inclination: 12.6 °
Period: 1,459.2 minutes
Semi major axis: 42615 km
RCS: 2.2387 m2 (large)
Launch date: February 26, 1992
Source: India (IND)
Launch site: FRENCH GUIANA (FRGUI)
aabbcc
Your satellite tracking list
Your tracking list is empty




NASA's NSSDC Master Catalog

Two Line Element Set (TLE):
1 21894U 92010B   20018.37025531 -.00000230 +00000-0 +00000-0 0  9999
2 21894 012.5641 028.2910 0028258 231.7883 313.5308 00.98685418101110
Source of the keplerian elements: AFSPC